Wind_Speed
11 7 6 6 6 6 8 8 8 9 10 8 6 5 5 7 9 8 8 7 5 3 5 8 9 8 8 9 10 10 9 10 10 10 9 10 11 11 11 10 10 11
13 11 8 8 8 8 8 9 9 9 10 9 7 6 4 6 7 7 6 5 4 3 2 7 9 10 10 9 10 11 11 12 12 11 10 9 9 8 8 7 7 8
16 14 11 10 11 10 9 9 9 10 11 11 10 8 6 3 5 5 4 4 3 2 1 3 7 11 12 11 11 12 13 13 13 13 12 11 10 8 7 6 5 5
21 19 15 13 13 12 10 10 10 10 11 11 9 9 9 7 5 4 2 1 2 1 2 3 5 9 12 14 14 14 14 15 15 14 14 13 12 11 9 7 6 7
25 23 19 16 15 14 12 10 11 11 11 10 9 9 9 9 7 3 0 2 3 6 7 6 5 8 11 13 15 16 17 17 17 16 15 15 14 14 13 11 9 8
28 27 22 18 17 16 14 13 13 13 13 11 11 10 8 8 7 5 5 5 5 7 8 7 8 11 13 13 15 18 20 19 18 18 17 16 16 15 14 13 12 12
31 29 24 21 19 18 16 14 14 15 15 12 11 11 10 7 6 6 8 9 8 8 9 9 11 14 15 14 14 17 20 20 20 19 18 18 17 16 15 15 14 15
33 30 26 24 21 20 18 15 14 16 16 15 13 13 11 9 7 7 7 8 9 11 12 12 15 16 16 15 13 15 18 19 21 20 20 19 18 18 18 17 17 17
34 31 28 26 24 23 20 17 16 17 17 17 16 15 14 11 10 8 8 9 11 12 14 15 16 18 17 15 15 16 17 18 20 21 21 21 21 21 20 20 19 18
35 33 31 28 26 26 25 21 19 18 18 19 18 17 17 14 12 12 12 13 13 13 15 16 18 19 18 17 17 18 18 18 20 21 23 24 24 24 23 22 20 19
36 35 35 31 28 29 29 26 22 18 18 19 20 19 19 17 15 14 13 14 14 15 16 17 19 21 19 18 19 20 21 20 20 22 24 25 26 26 25 23 20 19
38 38 36 33 31 33 33 30 24 18 17 19 20 21 21 20 17 15 15 17 18 18 17 17 19 21 19 19 21 23 25 24 24 25 26 27 28 27 25 23 20 20
36 36 36 35 35 36 37 33 27 21 18 19 21 22 22 21 20 18 18 20 21 21 20 19 19 21 20 21 24 26 28 29 28 28 29 30 30 28 26 24 23 23
32 30 32 35 35 37 37 34 31 27 23 22 24 23 21 20 22 24 24 24 25 26 25 22 21 22 23 24 26 29 31 31 31 31 31 32 31 30 29 29 27 26
35 32 34 36 36 37 38 36 35 32 28 26 23 19 19 20 25 28 27 28 29 30 28 25 23 24 26 27 29 30 31 31 32 33 33 33 32 32 32 31 30 28
45 44 43 40 38 40 40 39 38 35 30 26 21 19 20 23 29 31 29 29 31 31 30 28 26 26 28 30 31 32 32 32 33 33 34 35 35 34 34 33 31 30
50 50 47 42 41 42 42 42 42 37 31 25 21 20 24 29 33 35 33 31 31 31 30 29 28 29 31 33 35 36 36 36 37 36 36 38 38 37 36 35 33 32
50 49 47 45 45 45 45 46 45 41 36 32 27 24 25 29 33 35 34 32 29 29 30 30 30 30 32 35 37 38 39 40 41 41 39 39 40 40 39 37 36 35
49 47 46 46 47 47 47 49 48 45 41 38 35 31 28 29 32 34 36 37 34 31 32 33 32 32 33 35 37 39 40 43 45 44 42 40 41 41 41 40 39 38
50 48 47 46 48 49 49 50 49 49 46 41 39 37 34 33 34 34 37 40 39 35 33 35 36 36 36 37 38 39 41 43 45 44 42 40 39 39 40 40 40 40
49 49 49 49 49 49 51 50 50 52 53 49 44 42 40 39 39 38 38 41 42 39 37 37 39 40 40 42 42 43 42 41 41 41 39 38 38 39 40 40 41 42
49 48 50 51 51 51 53 53 52 54 57 55 50 47 46 44 42 42 42 43 45 45 44 43 43 43 44 45 45 46 46 44 42 41 41 41 42 42 42 43 43 44
49 49 51 53 53 53 54 56 56 56 57 57 55 52 50 48 45 44 44 45 47 48 48 48 48 47 47 47 47 46 47 47 46 45 44 45 45 45 45 45 45 46
48 47 50 53 53 54 55 56 57 57 58 58 57 56 54 52 51 50 50 50 51 52 52 52 52 51 50 51 50 48 47 47 48 48 47 46 45 45 45 45 46 46
51 49 50 51 53 54 55 54 54 56 57 58 58 58 58 57 56 56 56 56 57 57 57 57 56 56 55 54 54 53 50 48 48 48 48 47 46 45 45 45 46 47
56 54 53 53 54 55 56 56 56 56 58 59 60 60 59 59 59 59 59 60 60 60 60 60 58 58 58 57 56 56 55 52 51 50 49 49 48 48 48 48 49 50
Wind_Direction
237 239 230 209 189 184 192 193 185 166 157 155 149 142 121 103 95 90 91 89 96 141 192 206 202 201 195 175 161 157 155 155 153 144 135 131 125 118 112 108 107 108
236 231 223 212 209 209 204 206 208 198 184 179 178 171 152 115 96 85 86 87 80 93 193 223 217 210 205 195 185 178 172 169 168 165 160 156 151 140 131 126 123 123
234 230 221 216 223 224 221 224 219 210 203 201 197 191 188 160 112 96 87 90 88 76 39 258 233 217 213 213 205 194 187 183 178 178 181 180 179 177 169 168 168 168
234 234 224 215 224 229 232 236 228 220 218 215 212 203 198 197 168 120 86 125 167 235 299 289 247 222 218 219 214 207 204 199 193 191 192 191 193 196 198 206 213 211
234 233 225 213 216 220 221 231 233 229 232 233 231 218 198 198 195 171 266 258 232 241 254 272 269 244 233 226 220 216 212 209 208 207 205 205 207 211 216 225 230 225
233 232 227 214 210 212 214 227 236 238 242 243 241 235 213 202 213 227 249 251 238 234 237 252 269 262 250 239 227 220 218 219 220 217 216 217 218 219 222 226 229 229
231 230 228 219 213 213 215 224 235 241 245 242 236 237 232 223 234 252 249 236 230 237 231 230 247 255 250 244 235 227 226 229 228 226 225 226 225 224 225 227 228 228
229 228 226 225 225 224 219 221 231 238 240 235 230 233 236 238 245 259 257 236 230 238 234 226 234 242 241 241 241 236 234 233 231 232 234 235 236 237 238 239 236 233
227 226 225 229 233 233 226 223 230 237 237 234 233 234 234 233 234 237 248 250 243 239 238 236 236 238 237 239 241 240 237 234 232 235 237 238 240 242 243 244 243 245
225 224 225 230 235 238 232 226 228 234 237 235 235 236 235 233 232 226 230 244 250 250 252 248 242 241 240 240 243 243 240 237 235 237 238 238 238 241 243 243 244 250
224 225 226 228 237 240 235 230 230 232 237 240 242 243 239 237 238 237 237 243 248 256 264 257 242 240 243 246 251 251 245 243 243 244 243 242 241 242 243 242 243 248
224 225 225 232 244 241 232 231 232 231 235 244 252 253 244 236 237 241 246 249 249 253 263 261 244 237 242 250 253 253 251 250 250 248 247 246 244 245 247 245 245 249
224 227 232 242 245 234 227 230 232 230 235 247 260 261 249 238 236 235 235 241 247 247 252 258 248 237 241 249 254 256 256 254 251 248 248 249 248 249 250 248 249 252
223 226 233 240 236 225 223 229 231 233 242 253 259 254 242 236 237 235 231 232 238 240 243 250 250 243 244 250 255 259 259 256 251 248 249 251 252 252 252 251 251 252
220 221 227 234 234 226 224 228 231 235 245 252 246 230 221 228 234 234 232 232 234 238 241 245 248 248 247 248 253 259 261 259 254 250 248 251 254 256 255 254 253 254
224 227 230 234 234 230 228 229 232 237 242 239 225 207 208 224 233 235 234 235 236 238 240 241 246 249 249 249 254 261 264 264 260 255 251 250 252 255 256 255 255 256
226 228 229 231 232 232 231 231 234 237 235 228 218 212 214 222 230 233 233 235 237 236 236 239 244 247 247 248 253 259 263 266 264 259 253 250 250 251 254 256 256 258
227 228 229 230 232 234 233 233 235 235 234 234 231 227 226 228 231 233 233 235 238 238 236 237 241 242 241 243 250 255 259 263 264 262 256 251 250 251 254 257 257 258
230 231 231 230 232 235 234 235 236 234 236 242 239 235 237 238 238 239 239 239 241 242 241 239 239 240 239 242 247 252 256 259 261 262 259 254 253 254 257 258 258 258
233 233 233 232 232 234 235 235 235 233 237 244 244 242 243 241 240 240 238 238 239 240 241 241 241 242 245 247 249 252 256 258 259 261 261 258 256 257 260 262 262 262
233 234 235 234 233 233 235 236 235 234 238 243 245 245 245 243 242 242 241 240 242 242 243 244 245 247 251 253 253 254 256 258 258 259 260 260 261 262 264 266 266 266
233 234 235 234 234 234 236 237 237 238 242 244 244 244 244 244 246 247 247 247 247 248 249 249 249 250 252 254 256 256 257 258 258 258 260 262 265 266 267 267 268 268
234 236 236 236 236 236 238 239 239 241 243 245 246 245 246 247 248 250 251 251 251 251 251 252 253 253 252 252 255 257 258 258 258 258 260 262 264 266 268 269 269 269
234 235 234 233 234 235 237 238 241 243 244 246 246 246 247 249 251 253 254 255 256 255 254 254 256 256 254 252 252 254 256 258 259 259 260 261 263 265 267 268 269 269
236 237 236 234 232 233 235 238 241 244 246 247 248 248 249 251 253 255 257 258 259 258 258 257 257 258 258 256 254 254 255 256 258 258 259 260 261 262 263 265 265 266
241 242 242 240 238 238 239 242 245 248 249 249 249 250 252 253 255 257 258 259 260 260 260 259 259 260 260 259 258 257 256 257 258 258 259 259 258 258 260 261 263 264
Height
10982 10984 10984 10985 10985 10985 10986 10986 10986 10986 10986 10986 10987 10988 10990 10990 10990 10989 10990 10990 10991 10992 10993 10993 10994 10994 10994 10995 10995 10996 10996 10996 10997 10998 10998 10998 10998 10998 10998 10999 10999 10999
10981 10982 10983 10984 10984 10985 10986 10986 10986 10987 10987 10987 10987 10987 10989 10990 10990 10990 10989 10990 10990 10991 10992 10993 10994 10995 10995 10996 10996 10996 10997 10997 10997 10998 10999 10999 10999 10999 10999 11000 11000 11000
10980 10981 10982 10982 10983 10984 10985 10986 10986 10987 10987 10987 10987 10987 10988 10989 10990 10990 10989 10989 10990 10990 10991 10992 10994 10994 10995 10996 10996 10997 10997 10997 10997 10997 10998 10999 11000 11001 11001 11001 11001 11001
10978 10979 10980 10981 10982 10982 10983 10984 10985 10986 10987 10986 10986 10987 10987 10988 10989 10989 10989 10989 10988 10988 10990 10991 10992 10993 10994 10995 10996 10996 10997 10997 10997 10997 10998 10999 11000 11001 11001 11002 11002 11002
10975 10977 10979 10980 10981 10981 10982 10983 10983 10985 10985 10986 10986 10986 10987 10987 10988 10989 10989 10988 10988 10987 10988 10990 10991 10992 10993 10994 10995 10995 10996 10996 10997 10997 10997 10998 10999 11000 11001 11002 11003 11003
10972 10974 10976 10977 10978 10979 10980 10981 10981 10982 10984 10984 10985 10985 10986 10986 10987 10988 10988 10988 10987 10987 10988 10989 10990 10991 10991 10992 10993 10994 10995 10995 10996 10996 10996 10997 10998 10999 11000 11001 11002 11003
10970 10972 10974 10975 10976 10977 10978 10979 10980 10981 10982 10983 10983 10984 10985 10985 10986 10987 10987 10986 10986 10987 10987 10988 10989 10989 10990 10991 10991 10992 10994 10995 10996 10996 10996 10997 10998 10998 10999 11000 11000 11001
10967 10969 10971 10972 10973 10975 10976 10978 10979 10979 10980 10981 10981 10982 10983 10983 10984 10985 10986 10985 10985 10986 10986 10985 10986 10988 10989 10989 10990 10991 10992 10993 10995 10996 10996 10997 10998 10998 10999 10999 10999 10999
10964 10967 10969 10970 10971 10973 10974 10976 10977 10977 10978 10979 10980 10980 10981 10981 10982 10983 10984 10984 10984 10985 10985 10984 10984 10986 10988 10988 10989 10989 10990 10991 10993 10994 10995 10996 10996 10997 10997 10997 10997 10998
10961 10964 10965 10967 10968 10970 10972 10974 10975 10975 10976 10977 10978 10979 10979 10979 10980 10981 10982 10982 10982 10983 10983 10984 10985 10985 10986 10987 10987 10988 10989 10990 10991 10992 10993 10993 10994 10994 10994 10995 10995 10996
10959 10960 10962 10964 10965 10968 10970 10971 10972 10973 10974 10975 10976 10977 10978 10978 10978 10979 10979 10979 10980 10981 10982 10983 10984 10984 10984 10985 10986 10987 10989 10990 10990 10991 10991 10992 10992 10991 10992 10992 10993 10995
10956 10958 10959 10961 10963 10965 10967 10968 10969 10970 10971 10972 10974 10975 10976 10977 10978 10978 10977 10977 10978 10980 10980 10981 10981 10982 10983 10983 10984 10985 10986 10987 10988 10989 10989 10989 10989 10989 10990 10991 10992 10993
10953 10956 10958 10959 10960 10962 10963 10965 10966 10967 10968 10969 10971 10973 10975 10977 10978 10978 10977 10977 10978 10978 10978 10978 10979 10980 10980 10981 10982 10982 10983 10984 10985 10986 10987 10986 10987 10987 10988 10990 10991 10991
10950 10954 10955 10955 10956 10958 10960 10962 10963 10963 10964 10966 10968 10971 10975 10977 10977 10976 10975 10976 10976 10975 10975 10976 10976 10977 10978 10979 10980 10981 10981 10982 10983 10984 10984 10984 10984 10985 10986 10987 10988 10988
10947 10949 10949 10950 10952 10955 10956 10958 10959 10959 10960 10962 10964 10967 10969 10971 10971 10969 10970 10971 10971 10971 10972 10973 10973 10975 10976 10977 10977 10978 10979 10980 10981 10982 10982 10982 10982 10983 10983 10984 10985 10985
10943 10943 10945 10947 10950 10951 10953 10955 10955 10956 10956 10958 10960 10960 10961 10962 10961 10961 10963 10965 10965 10967 10969 10970 10971 10972 10974 10974 10974 10975 10977 10977 10978 10979 10979 10979 10980 10980 10981 10981 10982 10983
10939 10940 10943 10946 10947 10948 10951 10952 10952 10953 10954 10955 10955 10954 10954 10954 10953 10954 10957 10959 10961 10963 10965 10966 10968 10969 10971 10971 10971 10972 10973 10973 10974 10975 10976 10975 10976 10977 10978 10979 10979 10980
10935 10937 10940 10943 10944 10945 10947 10948 10949 10951 10952 10952 10952 10951 10951 10951 10949 10950 10952 10954 10957 10959 10962 10964 10965 10965 10966 10967 10968 10969 10969 10969 10970 10970 10971 10971 10971 10973 10974 10975 10975 10975
10932 10934 10937 10939 10941 10942 10944 10945 10946 10948 10948 10948 10948 10949 10949 10948 10947 10947 10949 10950 10953 10956 10959 10961 10962 10962 10963 10964 10964 10965 10966 10966 10966 10966 10967 10967 10968 10969 10970 10971 10971 10971
10928 10930 10932 10935 10937 10938 10939 10941 10942 10944 10944 10944 10945 10945 10945 10945 10944 10945 10946 10947 10950 10953 10955 10956 10957 10958 10959 10960 10961 10962 10963 10963 10963 10963 10963 10963 10964 10966 10966 10967 10968 10968
10923 10925 10927 10930 10932 10933 10935 10936 10938 10939 10939 10940 10941 10941 10941 10941 10941 10942 10943 10944 10946 10949 10951 10952 10953 10954 10956 10957 10958 10958 10959 10959 10960 10960 10960 10960 10960 10961 10962 10963 10963 10963
10918 10920 10923 10925 10927 10929 10930 10931 10933 10934 10934 10935 10936 10936 10936 10936 10937 10938 10939 10941 10943 10945 10948 10949 10949 10951 10953 10953 10954 10954 10955 10955 10956 10956 10956 10956 10956 10957 10957 10958 10958 10959
10913 10916 10918 10920 10922 10924 10925 10926 10927 10929 10929 10930 10931 10932 10932 10932 10933 10934 10935 10936 10938 10940 10943 10944 10945 10947 10949 10949 10950 10950 10950 10951 10952 10952 10952 10952 10952 10952 10952 10953 10953 10953
10907 10910 10912 10914 10916 10918 10919 10920 10921 10922 10923 10924 10925 10926 10926 10927 10928 10929 10930 10932 10933 10935 10937 10939 10939 10941 10943 10944 10945 10946 10946 10947 10947 10947 10947 10947 10947 10948 10948 10948 10948 10948
10900 10903 10905 10907 10909 10911 10912 10914 10915 10916 10917 10917 10918 10919 10921 10921 10923 10924 10925 10927 10928 10929 10931 10933 10935 10935 10937 10938 10939 10940 10941 10942 10942 10942 10942 10942 10943 10943 10943 10943 10943 10942
10892 10896 10898 10900 10902 10904 10906 10907 10909 10910 10911 10912 10912 10913 10915 10916 10917 10918 10920 10921 10923 10924 10925 10927 10929 10930 10930 10932 10934 10935 10936 10937 10937 10937 10938 10937 10938 10938 10937 10938 10936 10936